Location: Bassano
(45.7667°N, 11.7333°E)
Time: 00:35:44
(UTC+00:00)

Daily predictions for brighter satellites

Satellite Brightness Start Highest point End
(mag) Time Altitude Azimuth Time Altitude Azimuth Time Altitude Azimuth
STARLINK-1268 3.6 00:04:28 47° ENE 00:04:28 47° ENE 00:06:48 10° ENE
STARLINK-1301 3.2 00:03:56 72° SSE 00:04:04 73° SE 00:07:55 10° ENE
STARLINK-1303 3.2 00:05:53 72° SSE 00:05:56 73° SE 00:09:41 10° ENE
Cosmos 1570 Rocket 4.0 00:04:53 42° SSW 00:06:44 83° WNW 00:12:03 10° NNE
STARLINK-66 3.1 00:07:09 67° NNW 00:07:09 67° NNW 00:10:21 10° NE
Cosmos 1400 Rocket 3.7 00:03:36 10° N 00:07:37 47° ENE 00:09:10 31° SE
Cosmos 1709 Rocket 3.9 00:05:05 37° SSW 00:07:40 82° W 00:13:54 10° N
Cosmos 1763 Rocket 4.0 00:05:57 32° WSW 00:07:58 50° WNW 00:12:54 10° NNE
STARLINK-1316 3.3 00:09:23 59° ENE 00:09:23 59° ENE 00:12:00 10° ENE
Cosmos 2227 Rocket 3.2 00:04:23 10° NW 00:09:12 29° WSW 00:10:10 28° WSW
STARLINK-1312 3.2 00:09:13 74° S 00:09:24 77° SE 00:13:11 10° ENE
STARLINK-1257 3.2 00:10:14 61° ENE 00:10:14 61° ENE 00:12:54 10° ENE
STARLINK-1256 3.2 00:11:11 62° ENE 00:11:11 62° ENE 00:13:52 10° ENE
STARLINK-58 3.6 00:11:42 46° E 00:11:42 46° E 00:14:10 10° ENE
STARLINK-1213 3.1 00:12:02 64° ENE 00:12:02 64° ENE 00:14:45 10° ENE
STARLINK-1263 3.1 00:12:53 66° NE 00:12:53 66° NE 00:15:38 10° ENE
STARLINK-1259 3.1 00:13:47 68° NE 00:13:47 68° NE 00:16:35 10° ENE
Cosmos 2084 Rocket 3.4 00:09:18 10° NW 00:13:46 71° SW 00:14:58 47° SSE
STARLINK-1265 3.0 00:14:10 70° NE 00:14:10 70° NE 00:17:00 10° ENE
STARLINK-1285 3.0 00:14:38 70° NE 00:14:38 70° NE 00:17:27 10° ENE
SL-16 R/B 3.3 00:10:23 13° SE 00:15:36 50° ENE 00:21:33 10° N
STARLINK-1296 3.0 00:16:22 73° NE 00:16:22 73° NE 00:19:15 10° ENE
Cosmos 1758 Rocket 3.6 00:15:28 48° SW 00:16:31 65° W 00:20:57 10° N
Cosmos 2298 Rocket 4.2 00:11:18 10° NNW 00:16:38 70° ENE 00:19:50 24° SSE
STARLINK-1260 2.9 00:17:14 74° NNE 00:17:14 74° NNE 00:20:10 10° ENE
STARLINK-1318 2.9 00:18:06 75° NNE 00:18:06 75° NNE 00:21:04 10° ENE
STARLINK-75 3.3 00:18:02 56° WNW 00:18:23 62° NNW 00:21:36 10° NE
STARLINK-1275 2.9 00:18:59 76° N 00:18:59 76° N 00:21:59 10° ENE
STARLINK-48 3.7 00:19:06 49° SE 00:19:06 49° SE 00:22:51 10° ENE
STARLINK-1309 2.9 00:19:50 76° N 00:19:50 76° N 00:22:51 10° ENE
STARLINK-1282 2.9 00:20:42 76° N 00:20:42 76° N 00:23:45 10° ENE
IRAS Rocket 4.2 00:18:06 32° SSE 00:20:49 87° WSW 00:26:23 10° NNW
STARLINK-1283 3.5 00:20:03 46° WSW 00:21:13 85° NNW 00:25:22 10° ENE
STARLINK-1313 3.0 00:21:38 66° NW 00:21:44 67° NNW 00:24:52 10° NE
STARLINK-80 3.3 00:21:07 55° WSW 00:21:54 84° NNW 00:25:42 10° ENE
STARLINK-1279 3.0 00:22:33 65° NW 00:22:41 66° NNW 00:25:48 10° NE
STARLINK-1298 2.9 00:23:16 73° NW 00:23:17 73° NNW 00:26:24 10° NE
STARLINK-1293 2.9 00:24:09 71° NW 00:24:14 72° NNW 00:27:21 10° NE
SL-16 R/B 3.4 00:22:44 22° SSE 00:25:21 32° ESE 00:30:18 10° NE
Cosmos 2208 Rocket 4.1 00:23:37 36° SW 00:25:45 69° WNW 00:31:08 10° NNE
STARLINK-1255 3.0 00:25:54 68° NW 00:26:02 69° NNW 00:29:09 10° NE
STARLINK-22 3.2 00:26:16 58° WNW 00:26:38 66° NNW 00:29:50 10° NE
STARLINK-1297 3.2 00:26:32 57° WSW 00:27:11 82° NNW 00:30:49 10° ENE
STARLINK-1311 3.2 00:28:27 53° NW 00:28:37 55° NNW 00:31:33 10° NE
Cosmos 2285 Rocket 4.2 00:23:09 10° NNW 00:29:18 52° WSW 00:31:55 32° SSW
MOZ.5/SAFIR/RUBIN 5/SL-8 3.9 00:29:16 29° SSE 00:31:37 71° ENE 00:36:16 10° N
USA 81 4.5 00:30:17 33° SW 00:32:15 49° W 00:37:24 10° N
CZ-2D R/B 2.8 00:27:22 10° NNE 00:32:23 45° E 00:35:02 25° SSE
USA 215 3.3 00:28:06 17° SSE 00:33:07 54° SW 00:39:33 10° WNW
STARLINK-1281 4.5 00:33:11 33° SE 00:33:26 33° SE 00:37:11 10° ENE
Cosmos-2242 3.3 00:29:23 10° NNW 00:33:31 50° W 00:34:24 42° SW
Meteor 2-10 Rocket 4.3 00:29:18 10° NNW 00:33:56 35° W 00:35:16 30° WSW
Cosmos 1953 Rocket 3.5 00:33:32 44° SSW 00:34:53 76° W 00:39:18 10° N
Cosmos 2221 3.8 00:32:15 10° N 00:36:21 38° ENE 00:39:28 16° SE
STARLINK-42 3.9 00:36:26 31° WNW 00:37:27 43° NNW 00:40:28 10° NE
BREEZE-M R/B 3.8 00:32:09 10° W 00:37:41 49° N 00:40:44 10° ENE
STARLINK-1310 4.3 00:37:57 35° SSE 00:38:24 36° SE 00:42:12 10° ENE
STARLINK-1029 2.7 00:39:04 82° SSW 00:39:11 85° SE 00:42:21 10° ENE
STARLINK-34 2.9 00:40:02 64° WNW 00:40:20 71° NNW 00:43:24 10° NE
CZ-4C R/B 3.7 00:38:34 29° SSE 00:40:48 74° ENE 00:45:14 10° N
STARLINK-41 3.9 00:40:11 30° WNW 00:41:11 41° NNW 00:44:07 10° NE
STARLINK-60 3.3 00:38:02 10° NW 00:41:13 64° NNE 00:44:22 10° ESE
GP-B 3.1 00:36:45 10° N 00:41:13 84° E 00:42:59 37° S
Cosmos 1315 Rocket 3.9 00:39:26 10° N 00:43:10 41° ENE 00:45:45 18° SE
STARLINK-1272 3.6 00:42:02 35° W 00:43:17 61° NNW 00:46:48 10° NE
STARLINK-1319 4.2 00:42:43 37° SSE 00:43:19 39° SE 00:47:12 10° ENE
Cosmos 1842 Rocket 4.1 00:38:57 10° N 00:43:21 54° ENE 00:46:04 22° SSE
Cosmos 540 Rocket 4.0 00:41:07 29° WSW 00:43:27 49° WNW 00:48:26 10° NNE
STARLINK-62 3.0 00:43:45 56° WNW 00:44:11 66° NNW 00:47:14 10° NE
Cosmos 2360 Rocket 4.0 00:43:58 11° SE 00:47:45 21° E 00:51:51 10° NE
STARLINK-1277 4.1 00:47:31 38° S 00:48:17 43° SE 00:52:13 10° ENE
STARLINK-1307 3.7 00:46:48 30° W 00:48:26 60° NNW 00:52:08 10° NE
Helios 1B rocket 4.2 00:45:34 10° NNW 00:48:48 22° WNW 00:50:24 18° W
STARLINK-1290 3.8 00:50:11 27° W 00:51:58 57° NNW 00:55:39 10° NE
STARLINK-1276 4.0 00:52:19 38° S 00:53:16 46° SE 00:57:15 10° ENE
Cosmos 2058 4.3 00:50:48 17° SE 00:53:20 32° E 00:57:06 10° NNE
Shenzhou-11 Module 4.1 00:56:40 13° ESE 00:56:40 13° ESE 00:57:03 10° ESE
Cosmos 1980 Rocket 2.7 00:51:50 25° WSW 00:54:57 50° WNW 01:00:29 10° NNE
Cosmos 2074 Rocket 4.0 00:51:22 27° S 00:55:02 88° W 01:01:21 10° N
STARLINK-1305 3.9 00:57:04 38° S 00:58:12 50° SE 01:02:14 10° ENE
STARLINK-1306 3.9 00:57:24 38° SSW 00:58:39 54° SE 01:02:45 10° ENE
STARLINK-1317 4.1 00:56:33 21° W 00:58:58 52° NNW 01:02:49 10° NE
Cosmos 1455 4.2 00:57:42 10° NW 00:59:55 15° W 01:00:05 15° W
CZ-4B R/B 3.9 00:56:04 10° NNE 01:01:17 60° ESE 01:04:34 23° S
STARLINK-1274 4.1 01:00:55 21° W 01:03:00 46° NNW 01:06:27 10° NE
STARLINK-1262 3.8 01:01:53 37° SSW 01:03:12 55° SE 01:07:16 10° ENE
STARLINK-1291 4.2 01:04:15 18° W 01:06:43 47° NNW 01:10:20 10° NE
Meteor 1-11 4.5 01:03:54 27° SW 01:06:49 56° WNW 01:12:19 10° N
STARLINK-1300 3.7 01:06:40 35° SSW 01:08:10 60° SE 01:12:15 10° ENE
STARLINK-1264 4.3 01:07:26 17° W 01:10:03 45° NNW 01:13:40 10° NE
ADEOS II 3.1 01:05:30 10° NNE 01:10:26 40° E 01:14:40 14° SSE
Cosmos 2263 Rocket 2.1 01:06:06 10° NNW 01:11:39 64° WSW 01:15:58 17° S
STARLINK-1295 3.6 01:11:26 33° SW 01:13:07 65° SE 01:17:13 10° ENE
NOSS 2-1 (C) 2.8 01:12:04 39° SSW 01:13:12 85° SE 01:16:49 10° NE
STARLINK-1267 4.4 01:10:39 15° W 01:13:26 43° NNW 01:17:01 10° NE
IRS-1D 4.1 01:08:36 10° NNE 01:13:46 54° E 01:17:31 18° S
STARLINK-29 3.4 01:10:48 10° NW 01:13:59 62° NNE 01:17:09 10° ESE
UNK 3.8 01:11:40 27° S 01:14:04 60° W 01:18:37 10° NNW
AQUA 3.9 01:10:42 10° NNE 01:15:29 78° ESE 01:18:24 24° S
SL-4 R/B 2.2 01:10:49 10° WNW 01:15:39 73° SSW 01:20:16 10° SE
STARLINK-64 3.3 01:14:12 30° WSW 01:15:51 76° NNW 01:19:27 10° ENE
USA 229 DEB 3.8 01:10:14 10° NW 01:17:31 72° WSW 01:25:07 10° SSE
USA 229 3.8 01:10:21 10° NW 01:17:37 73° WSW 01:25:13 10° SSE
STARLINK-1287 3.6 01:16:13 31° SW 01:18:05 70° SE 01:22:13 10° ENE
NOSS 2-1 (D) 2.9 01:16:50 36° SW 01:18:07 84° NW 01:21:44 10° NE
NOSS 3-1 (C) 4.1 01:10:52 10° NW 01:18:25 68° WSW 01:27:01 10° SSE
NPP 3.6 01:14:01 10° NNE 01:19:26 82° WNW 01:22:54 23° SSW
ARIANE 5 R/B 4.1 01:15:47 10° NE 01:20:07 29° E 01:24:25 10° SSE
Cosmos 2184 Rocket 4.1 01:16:26 24° SSW 01:20:14 60° WNW 01:26:21 10° N
CZ-4C R/B 4.2 01:18:34 10° W 01:22:59 24° NNW 01:28:06 10° NNE
BREEZE-M DEB (TANK) 2.2 01:23:14 30° WNW 01:23:59 55° NNW 01:26:53 10° ENE
Cosmos 1892 2.9 01:21:52 23° S 01:24:05 65° E 01:27:50 10° NNE
STARLINK-1299 3.6 01:24:05 24° WSW 01:26:34 90° N 01:30:50 10° ENE
NOSS 3-1 (A) 4.1 01:19:02 10° NW 01:26:37 84° SW 01:35:19 10° SSE
STARLINK-1302 3.5 01:25:46 26° SW 01:28:01 82° SE 01:32:11 10° ENE
Cosmos 1610 Rocket 4.5 01:24:10 21° SSW 01:28:29 76° W 01:34:43 10° N
BREEZE-M DEB (TANK) 2.5 01:26:31 10° WNW 01:28:46 39° N 01:31:21 10° E
Cosmos 1869 3.3 01:27:03 10° NNW 01:30:52 60° W 01:33:00 24° SSW
STARLINK-1273 3.5 01:30:32 24° SW 01:32:59 87° SSE 01:37:09 10° ENE
Cosmos 2322 Rocket 2.2 01:29:42 22° SSW 01:33:30 88° ESE 01:39:10 10° NNE
In-Cosmos 22 Rocket 4.2 01:31:02 19° S 01:35:13 90° NW 01:40:43 10° N
STARLINK-1288 3.6 01:35:19 22° WSW 01:37:57 87° NNW 01:42:08 10° ENE
STARLINK-61 3.4 01:35:51 25° SW 01:38:03 75° SE 01:41:58 10° ENE
STARLINK-1376 4.5 01:37:27 10° NW 01:40:24 37° NNE 01:43:20 10° E
STARLINK-81 4.4 01:38:56 21° S 01:40:34 31° SE 01:43:49 10° ENE
STARLINK-1360 4.5 01:37:46 10° NW 01:40:44 38° NNE 01:43:41 10° E
STARLINK-1361 4.5 01:38:07 10° NW 01:41:05 38° NNE 01:44:01 10° E
Resurs 1-4 Rocket 2.7 01:36:13 10° N 01:41:16 46° WNW 01:44:54 18° SW
STARLINK-1367 4.5 01:38:23 10° NW 01:41:22 39° NNE 01:44:22 10° E
STARLINK-1366 4.5 01:38:46 10° NW 01:41:44 38° NNE 01:44:40 10° E
STARLINK-54 4.2 01:40:39 22° S 01:42:20 35° SE 01:45:40 10° ENE
Cosmos 1076 Rocket 3.5 01:39:51 20° SSW 01:42:50 79° W 01:47:14 10° N
STARLINK-1308 3.6 01:40:08 19° WSW 01:42:59 81° NNW 01:47:09 10° ENE
STARLINK-77 4.3 01:42:03 21° S 01:43:48 33° SE 01:47:06 10° ENE
Cosmos 2151 3.9 01:40:33 10° SSE 01:44:38 46° E 01:48:46 10° NNE
Cosmos 1125 Rocket 4.1 01:40:45 10° NW 01:45:29 36° WSW 01:48:54 17° SSW
H-2A R/B 3.8 01:42:40 10° SE 01:46:42 35° ENE 01:50:50 10° N
STARLINK-79 4.2 01:46:45 21° SSW 01:48:40 36° SE 01:52:02 10° ENE
STARLINK-52 2.8 01:46:07 10° WNW 01:49:20 78° SSW 01:52:32 10° SE
Cosmos 962 Rocket 4.5 01:44:45 14° S 01:50:10 86° W 01:56:25 10° N
STARLINK-78 4.1 01:48:20 20° SSW 01:50:18 38° SE 01:53:42 10° ENE
STARLINK-57 4.0 01:49:58 21° SSW 01:51:59 41° SE 01:55:25 10° ENE
Cosmos 1408 2.6 01:49:31 17° S 01:52:18 85° E 01:55:59 10° N
STARLINK-1304 3.8 01:49:41 16° WSW 01:52:56 72° NNW 01:57:05 10° ENE
STARLINK-49 4.0 01:51:26 20° SSW 01:53:30 40° SE 01:56:55 10° ENE
Cosmos 2154 Rocket 4.3 01:49:51 17° SSW 01:54:36 52° WNW 02:00:40 10° N
STARLINK-27 4.0 01:53:02 20° SSW 01:55:10 41° SE 01:58:37 10° ENE
GEOS 3 Rocket 3.7 01:51:00 10° SSE 01:56:04 55° SW 02:01:16 10° NW
STARLINK-74 3.9 01:54:35 19° SSW 01:56:47 43° SE 02:00:14 10° ENE
STARLINK-39 3.9 01:56:10 19° SSW 01:58:24 44° SE 02:01:53 10° ENE
Cosmos 1825 2.4 01:55:27 12° S 01:58:53 66° E 02:02:38 10° NNE
STARLINK-1278 4.1 01:55:21 13° WSW 01:59:08 61° NNW 02:03:22 10° NE
Cosmos 2237 4.3 01:54:31 15° SSW 01:59:21 80° ESE 02:05:07 10° NNE
SL-16 R/B 3.4 01:55:29 16° SW 01:59:27 30° W 02:04:48 10° NW
STARLINK-31 3.8 01:57:45 19° SSW 02:00:03 46° SE 02:03:33 10° ENE
STARLINK-1007 4.5 01:57:32 16° SSW 02:00:21 38° SE 02:04:12 10° ENE
STARLINK-1280 4.1 01:57:08 12° WSW 02:00:59 59° NNW 02:05:13 10° NE
SL-08 R/B 3.2 01:56:30 10° SSE 02:01:08 85° WSW 02:05:46 10° NNW
STARLINK-69 3.6 01:59:20 19° SSW 02:01:42 51° SE 02:05:12 10° ENE
STARLINK-21 3.7 02:00:55 18° SSW 02:03:21 50° SE 02:06:51 10° ENE
IRS-P3 4.1 01:59:30 10° NNE 02:04:51 80° WNW 02:09:52 12° SSW
STARLINK-45 3.5 02:02:35 18° SW 02:05:06 56° SE 02:08:40 10° ENE
STARLINK-1048 4.4 02:02:18 16° SSW 02:05:17 41° SE 02:09:12 10° ENE
Cosmos 1844 Rocket 2.8 02:00:37 10° NNW 02:06:15 79° ENE 02:11:49 10° SSE
NOSS 2-1 (E) 4.3 02:04:58 12° WSW 02:07:43 32° NW 02:11:10 10° NNE
STARLINK-76 3.6 02:05:36 17° SW 02:08:13 55° SE 02:11:46 10° ENE
STARLINK-70 3.5 02:05:59 17° SW 02:08:39 59° SE 02:12:17 10° ENE
SL-16 R/B 2.9 02:04:36 14° SW 02:09:17 44° NW 02:14:43 10° NNE
STARLINK-1286 4.1 02:05:37 11° WSW 02:09:39 57° NNW 02:13:46 10° NE
STARLINK-23 3.5 02:07:11 16° SW 02:09:51 57° SE 02:13:25 10° ENE
STARLINK-1049 4.2 02:07:06 15° SSW 02:10:15 45° SE 02:14:13 10° ENE
STARLINK-1339 4.4 02:06:30 10° NW 02:10:23 52° NNE 02:14:17 10° ESE
STARLINK-32 3.5 02:08:37 16° SW 02:11:17 58° SE 02:14:50 10° ENE
CZ-2D R/B 3.4 02:07:54 10° N 02:12:12 27° WNW 02:16:21 11° WSW
STARLINK-1281 4.1 02:08:48 10° WSW 02:12:53 56° NNW 02:16:59 10° NE
STARLINK-40 3.5 02:10:18 16° SW 02:13:05 60° SE 02:16:40 10° ENE
Cosmos 2221 4.0 02:10:22 10° NW 02:13:39 21° W 02:16:16 13° SW
COSMOS 2428 4.1 02:08:48 10° SSE 02:13:49 33° ESE 02:18:50 10° NE
STARLINK-44 3.4 02:11:49 15° SW 02:14:39 62° SE 02:18:15 10° ENE
CZ-4C R/B 4.0 02:11:09 10° SSE 02:14:40 51° ENE 02:18:12 10° N
STARLINK-1377 4.3 02:11:02 10° NW 02:14:59 55° NNE 02:18:55 10° ESE
STARLINK-1051 4.1 02:11:51 14° SSW 02:15:11 49° SE 02:19:12 10° ENE
Cosmos 773 Rocket 4.0 02:11:02 11° SSW 02:16:02 89° WNW 02:21:23 10° NNE
STARLINK-37 3.3 02:13:33 15° SW 02:16:29 69° SE 02:20:06 10° ENE
STARLINK-60 4.4 02:14:42 10° W 02:17:00 18° SW 02:19:17 10° S
STARLINK-1310 4.2 02:13:49 10° WSW 02:17:53 53° NNW 02:21:58 10° NE
STARLINK-36 3.4 02:14:56 14° SW 02:17:54 66° SE 02:21:31 10° ENE
FALCON 9 DEB 3.0 02:15:12 10° WNW 02:18:39 71° SW 02:22:06 10° SE
STARLINK-1353 4.2 02:15:22 10° NW 02:19:20 58° NNE 02:23:18 10° ESE
STARLINK-63 3.3 02:18:10 13° SW 02:21:16 74° SE 02:24:53 10° ENE
STARLINK-35 3.3 02:19:32 13° SW 02:22:37 72° SSE 02:26:12 10° ENE
STARLINK-1319 4.3 02:18:49 10° W 02:22:52 50° NNW 02:26:55 10° NE
STARLINK-1375 4.1 02:19:44 10° NW 02:23:44 62° NNE 02:27:42 10° ESE
STARLINK-51 3.3 02:21:14 13° SW 02:24:25 75° SE 02:28:02 10° ENE
Cosmos 2366 rocket 4.1 02:18:44 10° S 02:24:59 87° W 02:31:21 10° N
STARLINK-1028 3.9 02:21:25 12° SW 02:25:07 58° SE 02:29:12 10° ENE
STARLINK-30 3.3 02:22:49 12° SW 02:26:05 77° SE 02:29:44 10° ENE
STARLINK-72 3.2 02:24:13 12° SW 02:27:29 79° SSE 02:31:04 10° ENE
STARLINK-1277 4.4 02:23:51 10° W 02:27:52 48° NNW 02:31:54 10° NE
Cosmos 2278 Rocket 4.4 02:22:59 10° N 02:27:59 30° NE 02:32:56 10° ESE
STARLINK-1350 4.0 02:24:05 10° NW 02:28:05 65° NNE 02:32:05 10° ESE
Shenzhou-11 Module 2.1 02:26:47 10° WSW 02:29:01 35° S 02:31:18 10° ESE
STARLINK-1021 3.8 02:26:14 11° SW 02:30:06 63° SE 02:34:13 10° ENE
Cosmos 2058 4.4 02:27:00 10° SW 02:30:17 23° WNW 02:33:42 10° NNW
STARLINK-59 3.2 02:27:25 11° SW 02:30:50 87° SE 02:34:25 10° ENE
Cosmos 1933 3.7 02:27:05 10° N 02:31:08 70° E 02:35:08 10° SSE
Cosmos 2360 Rocket 2.4 02:25:44 10° SW 02:31:13 63° WNW 02:36:50 10° NNE
STARLINK-1352 3.9 02:28:15 10° NW 02:32:15 69° NNE 02:36:15 10° ESE
STARLINK-1010 3.8 02:28:17 11° SW 02:32:21 69° SE 02:36:35 10° ENE
STARLINK-56 3.3 02:29:04 11° SW 02:32:35 86° SSE 02:36:15 10° ENE
STARLINK-73 3.3 02:30:38 10° WSW 02:34:13 88° SE 02:37:52 10° ENE
Cosmos 1328 Rocket 3.6 02:30:16 10° N 02:34:41 85° E 02:39:02 10° S
STARLINK-1019 3.8 02:30:59 10° SW 02:35:03 68° SE 02:39:10 10° ENE
STARLINK-38 3.3 02:32:13 10° WSW 02:35:51 89° NNW 02:39:30 10° ENE
STARLINK-1368 3.8 02:32:56 10° WNW 02:36:58 74° NNE 02:40:59 10° ESE
STARLINK-65 3.3 02:33:51 10° WSW 02:37:29 87° NNW 02:41:08 10° ENE
STARLINK-68 3.3 02:34:32 10° WSW 02:38:11 82° NNW 02:41:51 10° ENE
STARLINK-53 3.3 02:35:34 10° WSW 02:39:12 82° NNW 02:42:51 10° ENE
STARLINK-1012 3.7 02:35:54 10° SW 02:40:02 74° SE 02:44:10 10° ENE
STARLINK-1369 3.7 02:37:22 10° WNW 02:41:24 78° NNE 02:45:26 10° ESE
STARLINK-50 3.4 02:37:40 10° WSW 02:41:29 86° NNW 02:45:18 10° ENE
Cosmos 2333 Rocket 2.5 02:39:04 10° SSW 02:44:40 68° ESE 02:50:19 10° NNE
STARLINK-1372 3.6 02:41:33 10° WNW 02:45:33 83° NNE 02:49:31 10° ESE
Meteor 1-28 Rocket 3.8 02:42:17 10° SSW 02:45:45 36° W 02:49:14 10° NNW
STARLINK-71 3.6 02:42:13 10° WSW 02:46:15 80° NNW 02:50:17 10° ENE
Landsat 5 3.6 02:42:27 10° S 02:46:58 75° WSW 02:51:25 10° NNW
Cosmos 2219 Rocket 2.5 02:43:15 10° SSW 02:48:46 69° ESE 02:54:20 10° NNE
Cosmos 1727 Rocket 4.0 02:43:41 10° NNW 02:49:52 75° W 02:56:00 10° S
STARLINK-1026 3.7 02:45:49 10° SW 02:49:58 85° SSE 02:54:07 10° ENE
ADEOS II 3.2 02:45:27 10° N 02:50:00 30° WNW 02:54:32 10° SW
Cosmos 2322 3.8 02:44:28 10° SSW 02:50:11 80° WNW 02:55:57 10° NNE
STARLINK-1378 3.6 02:46:16 10° WNW 02:50:18 88° NNE 02:54:20 10° ESE
